EW0765 Weather Reports


Display with metric or nautical units.
time (UTC)temp
F
wind
direction
speed
MPH
gust
MPH
rain 1hr
in
rain 24hr
in
rain mn
in
humidity
%
barometer
mb
20260903153037 85 276 2.0 5.0 0.00 0.00 0.00 76 1013.7
20260903151535 84 238 0.0 4.0 0.00 0.00 0.00 77 1013.9
20260903150035 83 251 0.0 2.0 0.00 0.00 0.00 79 1014.0
20260903144531 82 242 0.0 3.0 0.00 0.00 0.00 80 1014.0
20260903143027 82 303 0.0 4.0 0.00 0.00 0.00 80 1014.0
20260903141526 81 335 1.0 5.0 0.00 0.00 0.00 80 1014.2
20260903140024 80 263 0.0 3.0 0.00 0.00 0.00 83 1013.8
20260903134524 79 5 0.0 2.0 0.00 0.00 0.00 84 1014.0
20260903133023 77 323 0.0 1.0 0.00 0.00 0.00 86 1014.1
20260903131522 76 38 0.0 0.0 0.00 0.00 0.00 88 1014.2
20260903130022 75 348 0.0 0.0 0.00 0.00 0.00 90 1014.4
20260903124521 73 348 0.0 0.0 0.00 0.00 0.00 90 1014.4
20260903123021 73 348 0.0 0.0 0.00 0.00 0.00 90 1014.3
20260903121520 72 348 0.0 0.0 0.00 0.00 0.00 90 1014.2
20260903120021 72 346 0.0 0.0 0.00 0.00 0.00 89 1014.2
20260903114518 72 347 0.0 0.0 0.00 0.00 0.00 88 1014.3
20260903113016 72 80 0.0 0.0 0.00 0.00 0.00 88 1014.6
20260903111514 73 80 0.0 0.0 0.00 0.00 0.00 87 1014.6
20260903110013 73 79 0.0 0.0 0.00 0.00 0.00 86 1014.0
20260903104510 74 88 0.0 0.0 0.00 0.00 0.00 85 1014.5
20260903103012 75 88 0.0 1.0 0.00 0.00 0.00 84 1014.6
20260903101510 75 62 0.0 8.0 0.00 0.00 0.00 83 1014.6
20260903100007 75 72 0.0 6.0 0.00 0.00 0.00 82 1014.6
20260903094506 74 250 1.0 5.0 0.00 0.00 0.00 83 1013.8
20260903093004 74 313 0.0 0.0 0.00 0.00 0.00 82 1013.4
20260903091505 74 313 0.0 0.0 0.00 0.00 0.00 82 1013.2
20260903090007 74 313 0.0 0.0 0.00 0.00 0.00 81 1013.3
20260903084503 74 313 0.0 0.0 0.00 0.00 0.00 81 1013.0
20260903083004 75 313 0.0 0.0 0.00 0.00 0.00 82 1013.0
20260903081501 75 313 0.0 0.0 0.00 0.00 0.00 81 1013.0
20260903080112 75 313 0.0 0.0 0.00 0.00 0.00 81 1013.1
20260903074622 75 313 0.0 0.0 0.00 0.00 0.00 80 1013.4
20260903073109 76 313 0.0 0.0 0.00 0.00 0.00 79 1013.5
20260903071608 76 313 0.0 0.0 0.00 0.00 0.00 78 1013.2
20260903070053 77 313 0.0 0.0 0.00 0.00 0.00 77 1013.4
20260903064551 77 313 0.0 0.0 0.00 0.00 0.00 76 1013.7
20260903063049 78 313 0.0 0.0 0.00 0.00 0.00 75 1014.1
20260903061554 78 313 0.0 2.0 0.00 0.00 0.00 74 1014.2
20260903060045 79 244 0.0 6.0 0.00 0.00 0.00 74 1014.4
20260903054543 80 292 1.0 7.0 0.00 0.00 0.00 79 1014.4
20260903053039 80 265 0.0 0.0 0.00 0.00 0.00 82 1013.5
20260903051537 80 265 0.0 0.0 0.00 0.00 0.00 81 1013.2
20260903050035 80 265 0.0 0.0 0.00 0.00 0.00 80 1012.9
20260903044533 80 223 0.0 2.0 0.00 0.00 0.00 80 1012.6
20260903043030 80 286 0.0 2.0 0.00 0.00 0.00 79 1012.6
20260903041536 81 288 0.0 0.0 0.00 0.00 0.00 79 1012.3
20260903040026 81 355 0.0 1.0 0.00 0.00 0.00 78 1012.2
20260903034530 81 251 0.0 2.0 0.00 0.00 0.00 78 1012.2
20260903033037 81 179 0.0 1.0 0.00 0.00 0.00 78 1011.7
20260903031522 81 281 0.0 0.0 0.00 0.00 0.00 78 1011.9
20260903030020 81 289 0.0 0.0 0.00 0.00 0.00 78 1012.2
20260903024519 81 289 0.0 0.0 0.00 0.00 0.00 78 1012.6
20260903023018 81 270 0.0 0.0 0.00 0.00 0.00 77 1012.8
20260903021517 82 274 0.0 0.0 0.00 0.00 0.00 78 1012.8
20260903020017 82 292 0.0 0.0 0.00 0.00 0.00 78 1012.9
20260903014517 82 259 0.0 0.0 0.00 0.00 0.00 77 1012.9
20260903013017 83 259 0.0 0.0 0.00 0.00 0.00 76 1013.0
20260903011516 83 259 0.0 0.0 0.00 0.00 0.00 75 1013.0
20260903010016 84 259 0.0 0.0 0.00 0.00 0.00 73 1012.9
20260903004531 84 259 0.0 0.0 0.00 0.00 0.00 71 1012.9
20260903003014 85 259 0.0 0.0 0.00 0.00 0.00 70 1012.7
20260903001514 85 259 0.0 0.0 0.00 0.00 0.00 69 1012.6
20260903000016 86 259 0.0 0.0 0.00 0.00 0.00 69 1012.5
20260902234513 87 259 0.0 0.0 0.00 0.00 0.00 67 1012.6
20260902233013 88 251 0.0 2.0 0.00 0.00 0.00 67 1012.6
20260902231516 88 222 0.0 0.0 0.00 0.00 0.00 66 1012.6
20260902230012 89 255 0.0 0.0 0.00 0.00 0.00 65 1012.6
20260902224512 89 257 0.0 1.0 0.00 0.00 0.00 63 1012.6
20260902223011 90 282 0.0 5.0 0.00 0.00 0.00 61 1012.5
20260902221516 91 257 0.0 5.0 0.00 0.00 0.00 60 1012.4
20260902220009 91 308 0.0 7.0 0.00 0.00 0.00 59 1012.4
20260902214509 92 217 0.0 10.0 0.00 0.00 0.00 59 1012.5
20260902213021 92 253 0.0 10.0 0.00 0.00 0.00 59 1012.5
20260902211507 93 265 1.0 11.0 0.00 0.00 0.00 57 1012.6
20260902210013 93 298 0.0 8.0 0.00 0.00 0.00 58 1012.8
20260902204503 93 254 0.0 6.0 0.00 0.00 0.00 57 1012.9
20260902203003 93 198 1.0 8.0 0.00 0.00 0.00 57 1013.1
20260902201502 93 244 0.0 7.0 0.00 0.00 0.00 55 1013.2
20260902200100 93 264 0.0 6.0 0.00 0.00 0.00 58 1013.3
20260902194556 92 250 0.0 5.0 0.00 0.00 0.00 59 1013.5
20260902193057 92 273 0.0 3.0 0.00 0.00 0.00 61 1013.6
20260902191556 92 228 0.0 8.0 0.00 0.00 0.00 60 1013.7
20260902190052 92 223 0.0 6.0 0.00 0.00 0.00 60 1013.9
20260902184559 92 302 0.0 8.0 0.00 0.00 0.00 58 1014.0
20260902183056 92 226 0.0 4.0 0.00 0.00 0.00 58 1014.2
20260902181549 92 228 1.0 7.0 0.00 0.00 0.00 60 1014.4
20260902180045 91 277 2.0 6.0 0.00 0.00 0.00 60 1014.4
20260902174544 91 249 2.0 10.0 0.00 0.00 0.00 59 1014.6
20260902173042 91 262 0.0 6.0 0.00 0.00 0.00 63 1014.9
20260902171541 90 231 0.0 6.0 0.00 0.00 0.00 62 1015.0
20260902170044 90 279 0.0 2.0 0.00 0.00 0.00 63 1015.1
20260902164537 89 257 0.0 4.0 0.00 0.00 0.00 67 1015.2
20260902163036 89 249 0.0 0.0 0.00 0.00 0.00 69 1015.3
20260902161530 87 212 0.0 3.0 0.00 0.00 0.00 72 1015.3
20260902160029 87 246 0.0 4.0 0.00 0.00 0.00 72 1015.5
20260902154529 87 258 0.0 0.0 0.00 0.00 0.00 72 1015.6